Track GLOBALSTAR M062 now! 10-day predictions GLOBALSTAR M062 is classified as:
1 26082U 00008B 22224.43746358 -.00000053 00000-0 32196-3 0 9991 2 26082 51.9834 273.1501 0006697 55.1705 47.4907 12.43388051367271